Flag for Norway Weather past 2 weeks in Fjerdingby, Norway

Now
54 °F

Overcast.


Feels Like: 54 °F
Forecast: 48 / 62 °F
Wind: 1 mph from Northwest

Location: Oslo-Blindern

Current Time: Aug 21, 2014 at 9:03:30 AM

Latest Report: Aug 21, 2014 at 8:00 AM


Visibility: 47 mi

Pressure: 29.56 "Hg

Humidity: 89%

Dew point: 51 °F

Location of FjerdingbyLocation

Historic Weather in Fjerdingby — Graph

°F

Fjerdingby temperature yesterday

Maximum temperature yesterday: 65 °F (at 2:00 PM)
Minimum temperature yesterday: 49 °F (at 4:00 AM)
Average temperature yesterday: 56 °F

Past Weeks' High & Low Weather Summary

 TemperatureHumidityPressure
High78 °F (Aug 8, 4:00 PM)97% (Aug 17, 11:00 AM)29.93 "Hg (Aug 17, 11:00 AM)
Low49 °F (Aug 20, 4:00 AM)43% (Aug 6, 5:00 PM)29.18 "Hg (Aug 18, 9:00 AM)
Average61 °F78%29.59 "Hg
* Reported Aug 6 8:00 AM — Aug 21 8:00 AM, Fjerdingby, Weather by CustomWeather, © 2014

Note: Actual official high and low records may vary slightly from our data, if they occured in-between our weather recording intervals... More about our weather records

Advertising

Fjerdingby weather history for previous 24 hours

 ConditionsComfort  
Time TempWeatherWind HumidityBarometerVisibility
8:00 AM
Aug 21
54 °FOvercast.1 mph89%29.56 "Hg47 mi
7:00 AM53 °FCool.1 mph89%29.55 "HgN/A
6:00 AM53 °FCool.1 mph90%29.55 "HgN/A
5:00 AM52 °FCool.2 mph91%29.54 "HgN/A
4:00 AM51 °FCool.2 mph93%29.54 "HgN/A
3:00 AM52 °FCool.1 mph93%29.54 "HgN/A
2:00 AM53 °FPassing clouds.1 mph86%29.54 "Hg40 mi
1:00 AM52 °FCool.1 mph90%29.53 "HgN/A
12:00 AM52 °FCool.2 mph91%29.50 "HgN/A
11:00 PM
Aug 20
52 °FPassing clouds.2 mph96%29.50 "Hg43 mi
10:00 PM53 °FCool.2 mph91%29.50 "HgN/A
9:00 PM54 °FCool.1 mph94%29.50 "HgN/A
8:00 PM56 °FOvercast.2 mph90%29.47 "Hg43 mi
7:00 PM57 °FCool.2 mph86%29.47 "HgN/A
6:00 PM56 °FCool.2 mph89%29.47 "HgN/A
5:00 PM59 °FSprinkles. Overcast.2 mph90%29.44 "Hg40 mi
4:00 PM60 °FCool.1 mph79%29.44 "HgN/A
3:00 PM60 °FCool.2 mph78%29.41 "HgN/A
2:00 PM65 °FPartly sunny.1 mph52%29.41 "Hg47 mi
1:00 PM64 °FMild.2 mph61%29.41 "HgN/A
12:00 PM64 °FMild.3 mph59%29.41 "HgN/A
11:00 AM62 °FPartly sunny.1 mph67%29.41 "Hg47 mi
10:00 AM58 °FCool.2 mph76%29.41 "HgN/A
9:00 AM55 °FCool.1 mph83%29.38 "HgN/A
Weather by CustomWeather, © 2014

See weather overviewHow to use our weather pages